Volver al catálogo

EXPRESS 1

ActivoComunicacionesGEO
NORAD 23319·PAYLOAD·🇷🇺 Russia

Lanzado Oct 13, 1994 desde Baikonur Cosmodrome

Loading…

TLE

ActualizadoSource: Space-Track

Época: Sep 14, 2026, 11:54 UTC

1 23319U 94067A   26257.49594111 -.00000217  00000-0  00000-0 0  9991
2 23319  14.5439   1.3243 0006306 244.2431  87.3362  0.99835229116468

Sigue EXPRESS 1 en tiempo real con AllMySat

Download on the App Store